This is the latest recevied weather packets stored in our database for station/object KB1JLI. If no packets are shown the sender has not sent any weather packets the latest 10 day(s).
| Time | Temp. | Humidity | Pressure | Rain* | Wind** | Luminosity | Snow |
|---|---|---|---|---|---|---|---|
| 1778000787 | 26.67° C | 39% | 1007.7 hPa | 0 mm | - | 677 W/m² | - |
| 1778000483 | 27.22° C | 39% | 1007.7 hPa | 0 mm | - | 679 W/m² | - |
| 1778000178 | 26.67° C | 39% | 1007.7 hPa | 0 mm | - | 666 W/m² | - |
| 1777999874 | 26.67° C | 38% | 1007.9 hPa | 0 mm | - | 677 W/m² | - |
| 1777999570 | 26.11° C | 40% | 1007.9 hPa | 0 mm | - | 693 W/m² | - |
| 1777999268 | 26.67° C | 39% | 1008.2 hPa | 0 mm | - | 688 W/m² | - |
| 1777998966 | 26.11° C | 40% | 1008.5 hPa | 0 mm | - | 680 W/m² | - |
| 1777998663 | 25.56° C | 42% | 1008.5 hPa | 0 mm | - | 671 W/m² | - |
| 1777998360 | 25.56° C | 41% | 1008.6 hPa | 0 mm | - | 679 W/m² | - |
| 1777998058 | 25.56° C | 42% | 1008.7 hPa | 0 mm | - | 680 W/m² | - |
| 1777997755 | 25.56° C | 43% | 1008.7 hPa | 0 mm | - | 743 W/m² | - |
| 1777997452 | 25.56° C | 42% | 1008.8 hPa | 0 mm | - | 558 W/m² | - |
| 1777997150 | 25° C | 44% | 1008.6 hPa | 0 mm | - | 719 W/m² | - |
| 1777996847 | 25.56° C | 43% | 1008.9 hPa | 0 mm | - | 676 W/m² | - |
| 1777996543 | 25° C | 44% | 1009.2 hPa | 0 mm | - | 674 W/m² | - |
| 1777996239 | 25° C | 46% | 1009.3 hPa | 0 mm | - | 669 W/m² | - |
| 1777995936 | 25° C | 44% | 1009.1 hPa | 0 mm | - | 656 W/m² | - |
| 1777995632 | 23.89° C | 46% | 1009.2 hPa | 0 mm | - | 651 W/m² | - |
| 1777995330 | 23.89° C | 47% | 1009.4 hPa | 0 mm | - | 685 W/m² | - |
| 1777995026 | 23.33° C | 49% | 1009.4 hPa | 0 mm | - | 750 W/m² | - |
| 1777994723 | 24.44° C | 46% | 1009.4 hPa | 0 mm | - | 655 W/m² | - |
| 1777994419 | 25° C | 46% | 1009.5 hPa | 0 mm | - | 634 W/m² | - |
| 1777994114 | 23.89° C | 47% | 1009.3 hPa | 0 mm | - | 685 W/m² | - |
| 1777993812 | 23.89° C | 48% | 1009.4 hPa | 0 mm | - | 621 W/m² | - |
| 1777993508 | 23.33° C | 49% | 1009.6 hPa | 0 mm | - | 599 W/m² | - |
* Rain latest hour (hover to see other rain measurements)
** Current wind speed in m/s (hover to see current wind gust speed)